Hat Yai, Thailand

12:14 PM ICT on February 24, 2017 (GMT +0700)
Hat Yai International

Weather History for VTSS - December, 2013

Change the Weather History Date:

Thursday, December 26, 2013

  Actual Average Record
Temperature  
Mean Temperature 78 °F -  
Max Temperature 82 °F 85 °F 90 °F (2015)
Min Temperature 74 °F 72 °F 69 °F (1999)
Cooling Degree Days 13    
Growing Degree Days 28 (Base 50)    
Moisture  
Dew Point 73 °F    
Average Humidity 87    
Maximum Humidity 94    
Minimum Humidity 74    
Precipitation  
Precipitation 0.02 in - - ()
Sea Level Pressure  
Sea Level Pressure 29.90 in    
Wind  
Wind Speed 4 mph ()    
Max Wind Speed 12 mph    
Max Gust Speed -    
Visibility 4.7 miles    
Events Rain    
Averages and records for this station are not official NWS values.
T = Trace of Precipitation, MM = Missing Value Source: Averaged Metar Reports

Daily Weather History Graph

Daily Weather History Graph

Search for Another Location

Airport or City:

Trip Planner

Search our weather history database for the weather conditions in past years. The results will help you decide how hot, cold, wet, or windy it might be!

Date:

Astronomy

Dec. 26, 2013 Rise Set
Actual Time 6:27 AM ICT 6:10 PM ICT
Civil Twilight 6:04 AM ICT 6:33 PM ICT
Nautical Twilight 5:38 AM ICT 6:59 PM ICT
Astronomical Twilight 5:12 AM ICT 7:25 PM ICT
Moon 12:20 AM ICT (12/26) 12:37 PM ICT (12/26)
Length of Visible Light 12h 28m
Length of Day
11h 43m
Last Quarter, 44% of the Moon is Illuminated
Dec 26
Last Quarter
Jan 1
New
Jan 8
First Quarter
Jan 16
Full
Jan 24
Last Quarter

Hourly Weather History & Observations

Time (ICT) Temp. Heat Index Dew Point Humidity Pressure Visibility Wind Dir Wind Speed Gust Speed Precip Events Conditions
12:00 AM 77.0 °F - 73.4 °F 89% 29.95 in 5.6 mi West 2.3 mph - N/A   Mostly Cloudy
12:30 AM 75.2 °F - 73.4 °F 94% 29.92 in 5.0 mi WNW 2.3 mph - N/A   Mostly Cloudy
1:00 AM 76 °F - 73 °F 86% 29.93 in 5 mi WNW 2.3 mph - -   Mist
1:00 AM 75.2 °F - 73.4 °F 94% 29.92 in 5.0 mi WNW 2.3 mph - N/A   Mostly Cloudy
1:30 AM 75.2 °F - 73.4 °F 94% 29.92 in 4.3 mi East 6.9 mph - N/A   Mostly Cloudy
2:00 AM 75.2 °F - 73.4 °F 94% 29.89 in 4.3 mi NE 5.8 mph - N/A Rain Light Rain
2:30 AM 77.0 °F - 71.6 °F 83% 29.89 in 4.3 mi ENE 4.6 mph - N/A   Mostly Cloudy
3:00 AM 75.2 °F - 71.6 °F 89% 29.86 in 4.3 mi NNE 3.5 mph - N/A   Mostly Cloudy
3:30 AM 75.2 °F - 71.6 °F 89% 29.86 in 3.7 mi North 3.5 mph - N/A Rain Light Rain
4:00 AM 75 °F - 72 °F 89% 29.89 in 4 mi ENE 3.5 mph - - Rain Light Rain
4:00 AM 75.2 °F - 71.6 °F 89% 29.86 in 3.7 mi ENE 3.5 mph - N/A Rain Light Rain
4:30 AM 75.2 °F - 73.4 °F 94% 29.89 in 3.7 mi ENE 2.3 mph - N/A Rain Light Rain
5:00 AM 75.2 °F - 73.4 °F 94% 29.89 in 3.1 mi ENE 4.6 mph - N/A Rain Light Rain
5:30 AM 75.2 °F - 73.4 °F 94% 29.89 in 3.1 mi Calm Calm - N/A   Mostly Cloudy
6:00 AM 75.2 °F - 73.4 °F 94% 29.89 in 3.7 mi North 3.5 mph - N/A   Overcast
6:30 AM 75.2 °F - 73.4 °F 94% 29.89 in 3.1 mi NW 2.3 mph - N/A   Mostly Cloudy
7:00 AM 75 °F - 73 °F 90% 29.92 in 2 mi North 3.5 mph - -   Mist
7:00 AM 75.2 °F - 73.4 °F 94% 29.92 in 2.5 mi North 3.5 mph - N/A   Mostly Cloudy
7:30 AM 75.2 °F - 73.4 °F 94% 29.92 in 3.1 mi NNE 3.5 mph - N/A   Mostly Cloudy
8:00 AM 75.2 °F - 73.4 °F 94% 29.95 in 3.1 mi North 3.5 mph - N/A   Mostly Cloudy
8:30 AM 75.2 °F - 73.4 °F 94% 29.95 in 3.7 mi NNW 4.6 mph - N/A Rain Light Rain
9:00 AM 77.0 °F - 73.4 °F 89% 29.95 in 3.7 mi WNW 2.3 mph - N/A   Mostly Cloudy
9:30 AM 77.0 °F - 75.2 °F 94% 29.95 in 3.7 mi NE 3.5 mph - N/A   Mostly Cloudy
10:00 AM 78 °F - 74 °F 82% 29.95 in 4 mi North 4.6 mph - -   Mist
10:00 AM 77.0 °F - 75.2 °F 94% 29.95 in 3.7 mi North 4.6 mph - N/A   Mostly Cloudy
10:30 AM 78.8 °F - 73.4 °F 83% 29.95 in 4.3 mi NW 6.9 mph - N/A   Mostly Cloudy
11:00 AM 78.8 °F - 73.4 °F 83% 29.92 in 4.3 mi NNE 8.1 mph - N/A   Mostly Cloudy
11:30 AM 80.6 °F 86.2 °F 75.2 °F 84% 29.92 in 5.0 mi NNE 9.2 mph - N/A   Mostly Cloudy
12:00 PM 82.4 °F 89.5 °F 75.2 °F 79% 29.92 in 5.6 mi NNE 5.8 mph - N/A   Mostly Cloudy
12:30 PM 82.4 °F 88.2 °F 73.4 °F 74% 29.89 in 5.6 mi NE 4.6 mph - N/A   Mostly Cloudy
1:00 PM 80 °F - 73 °F 74% 29.88 in 6 mi North 11.5 mph - - Rain Light Rain
1:00 PM 80.6 °F 85.4 °F 73.4 °F 79% 29.89 in 5.6 mi North 11.5 mph - N/A Rain Light Rain
1:30 PM 80.6 °F 85.4 °F 73.4 °F 79% 29.86 in 5.6 mi North 5.8 mph - N/A   Mostly Cloudy
2:00 PM 80.6 °F 85.4 °F 73.4 °F 79% 29.86 in 5.6 mi NE 8.1 mph - N/A   Mostly Cloudy
2:30 PM 80.6 °F 85.4 °F 73.4 °F 79% 29.83 in 5.6 mi NNE 5.8 mph - N/A   Mostly Cloudy
3:00 PM 78.8 °F - 73.4 °F 83% 29.83 in 5.6 mi NE 8.1 mph - N/A Rain Light Rain
3:30 PM 78.8 °F - 73.4 °F 83% 29.83 in 5.6 mi North 5.8 mph - N/A   Mostly Cloudy
4:00 PM 80 °F - 74 °F 76% 29.83 in 6 mi NNE 8.1 mph - - Rain Light Rain
4:00 PM 78.8 °F - 73.4 °F 83% 29.83 in 5.6 mi NNE 8.1 mph - N/A   Mostly Cloudy
4:30 PM 78.8 °F - 73.4 °F 83% 29.83 in 3.7 mi NNE 8.1 mph - N/A Rain Light Rain
5:00 PM 77.0 °F - 73.4 °F 89% 29.83 in 4.3 mi NNE 6.9 mph - N/A Rain Light Rain
5:30 PM 78.8 °F - 71.6 °F 78% 29.86 in 5.6 mi NNE 6.9 mph - N/A   Mostly Cloudy
6:00 PM 78.8 °F - 73.4 °F 83% 29.86 in 5.6 mi NE 4.6 mph - N/A   Mostly Cloudy
6:30 PM 77.0 °F - 73.4 °F 89% 29.89 in 5.6 mi NE 5.8 mph - N/A   Mostly Cloudy
7:00 PM 77 °F - 72 °F 82% 29.88 in 6 mi North 3.5 mph - -   Mist
7:00 PM 77.0 °F - 73.4 °F 89% 29.89 in 5.6 mi North 3.5 mph - N/A   Mostly Cloudy
7:30 PM 77.0 °F - 73.4 °F 89% 29.89 in 5.6 mi NE 2.3 mph - N/A   Mostly Cloudy
8:00 PM 77.0 °F - 73.4 °F 89% 29.92 in 5.6 mi Calm Calm - N/A   Mostly Cloudy
8:30 PM 77.0 °F - 73.4 °F 89% 29.92 in 5.6 mi Calm Calm - N/A   Mostly Cloudy
9:00 PM 77.0 °F - 73.4 °F 89% 29.95 in 5.6 mi Calm Calm - N/A   Mostly Cloudy
9:30 PM 77.0 °F - 73.4 °F 89% 29.95 in 5.6 mi Calm Calm - N/A   Mostly Cloudy
10:00 PM 76 °F - 72 °F 85% 29.96 in 6 mi Calm Calm - -   Mist
10:00 PM 77.0 °F - 73.4 °F 89% 29.95 in 5.6 mi Calm Calm - N/A   Mostly Cloudy
10:30 PM 77.0 °F - 73.4 °F 89% 29.95 in 5.6 mi Calm Calm - N/A   Mostly Cloudy
11:00 PM 77.0 °F - 73.4 °F 89% 29.92 in 5.6 mi Calm Calm - N/A   Mostly Cloudy
11:30 PM 77.0 °F - 73.4 °F 89% 29.92 in 5.6 mi Calm Calm - N/A   Mostly Cloudy